Time,TemperatureF,DewpointF,PressureIn,WindDirection,WindDirectionDegrees,WindSpeedMPH,WindSpeedGustMPH,Humidity,HourlyPrecipIn,Conditions,Clouds,dailyrainin,SolarRadiationWatts/m^2,SoftwareType,DateUTC
2013-02-08 00:21:00,32.0,32.0,-100.00,South,189,4.0,15.0,100,0.00,,,0.00,0.000000,,2013-02-08 09:21:00,
2013-02-08 00:31:00,32.0,32.0,-100.00,South,189,4.0,15.0,100,0.00,,,0.00,0.000000,,2013-02-08 09:31:00,
2013-02-08 00:42:00,32.0,32.0,-100.00,South,189,4.0,15.0,100,0.00,,,0.00,0.000000,,2013-02-08 09:42:00,
2013-02-08 00:51:00,32.0,32.0,-100.00,South,189,4.0,15.0,100,0.00,,,0.00,0.000000,,2013-02-08 09:51:00,
2013-02-08 01:22:00,31.0,31.0,-100.00,SSW,210,0.0,6.0,100,0.00,,,0.00,0.000000,,2013-02-08 10:22:00,
2013-02-08 01:31:00,31.0,31.0,-100.00,SSW,210,0.0,6.0,100,0.00,,,0.00,0.000000,,2013-02-08 10:31:00,
2013-02-08 01:41:00,31.0,31.0,-100.00,SSW,210,0.0,6.0,100,0.00,,,0.00,0.000000,,2013-02-08 10:41:00,
2013-02-08 01:51:00,31.0,31.0,-100.00,SSW,210,0.0,6.0,100,0.00,,,0.00,0.000000,,2013-02-08 10:51:00,
2013-02-08 02:21:00,31.0,31.0,-100.00,SSE,167,2.0,5.0,100,0.00,,,0.00,0.000000,,2013-02-08 11:21:00,
2013-02-08 02:32:00,31.0,31.0,-100.00,SSE,167,2.0,5.0,100,0.00,,,0.00,0.000000,,2013-02-08 11:32:00,
2013-02-08 02:41:00,31.0,31.0,-100.00,SSE,167,2.0,5.0,100,0.00,,,0.00,0.000000,,2013-02-08 11:41:00,
2013-02-08 02:52:00,31.0,31.0,-100.00,SSE,167,2.0,5.0,100,0.00,,,0.00,0.000000,,2013-02-08 11:52:00,
2013-02-08 03:11:00,31.0,31.0,-100.00,SSE,163,0.0,4.0,100,0.00,,,-99.99,0.000000,,2013-02-08 12:11:00,
2013-02-08 03:22:00,31.0,31.0,-100.00,SSE,163,0.0,4.0,100,0.00,,,-99.99,0.000000,,2013-02-08 12:22:00,
2013-02-08 03:32:00,31.0,31.0,-100.00,SSE,163,0.0,4.0,100,0.00,,,-99.99,0.000000,,2013-02-08 12:32:00,
2013-02-08 03:42:00,31.0,31.0,-100.00,SSE,163,0.0,4.0,100,0.00,,,-99.99,0.000000,,2013-02-08 12:42:00,
2013-02-08 03:52:00,31.0,31.0,-100.00,SSE,163,0.0,4.0,100,0.00,,,-99.99,0.000000,,2013-02-08 12:52:00,
2013-02-08 04:11:00,31.0,31.0,-100.00,South,174,0.0,1.0,100,0.00,,,-99.99,0.000000,,2013-02-08 13:11:00,
2013-02-08 04:21:00,31.0,31.0,-100.00,South,174,0.0,1.0,100,0.00,,,-99.99,0.000000,,2013-02-08 13:21:00,
2013-02-08 04:32:00,31.0,31.0,-100.00,South,174,0.0,1.0,100,0.00,,,-99.99,0.000000,,2013-02-08 13:32:00,
2013-02-08 04:42:00,31.0,31.0,-100.00,South,174,0.0,1.0,100,0.00,,,-99.99,0.000000,,2013-02-08 13:42:00,
2013-02-08 04:51:00,31.0,31.0,-100.00,South,174,0.0,1.0,100,0.00,,,-99.99,0.000000,,2013-02-08 13:51:00,
2013-02-08 05:11:00,31.0,31.0,-100.00,South,179,1.0,4.0,100,0.00,,,0.00,0.000000,,2013-02-08 14:11:00,
2013-02-08 05:21:00,31.0,31.0,-100.00,South,179,1.0,4.0,100,0.00,,,0.00,0.000000,,2013-02-08 14:21:00,
2013-02-08 05:32:00,31.0,31.0,-100.00,South,179,1.0,4.0,100,0.00,,,0.00,0.000000,,2013-02-08 14:32:00,
2013-02-08 05:41:00,31.0,31.0,-100.00,South,179,1.0,4.0,100,0.00,,,0.00,0.000000,,2013-02-08 14:41:00,
2013-02-08 05:52:00,31.0,31.0,-100.00,South,179,1.0,4.0,100,0.00,,,0.00,0.000000,,2013-02-08 14:52:00,
2013-02-08 06:11:00,28.0,28.0,-100.00,NW,321,0.0,6.0,100,0.00,,,0.00,0.000000,,2013-02-08 15:11:00,
2013-02-08 06:21:00,28.0,28.0,-100.00,NW,321,0.0,6.0,100,0.00,,,0.00,0.000000,,2013-02-08 15:21:00,
2013-02-08 06:32:00,28.0,28.0,-100.00,NW,321,0.0,6.0,100,0.00,,,0.00,0.000000,,2013-02-08 15:32:00,
2013-02-08 06:41:00,28.0,28.0,-100.00,NW,321,0.0,6.0,100,0.00,,,0.00,0.000000,,2013-02-08 15:41:00,
2013-02-08 06:51:00,28.0,28.0,-100.00,NW,321,0.0,6.0,100,0.00,,,0.00,0.000000,,2013-02-08 15:51:00,
2013-02-08 07:21:00,29.0,29.0,-100.00,SSW,199,0.0,2.0,100,0.00,,,0.00,0.000000,,2013-02-08 16:21:00,
2013-02-08 07:32:00,29.0,29.0,-100.00,SSW,199,0.0,2.0,100,0.00,,,0.00,0.000000,,2013-02-08 16:32:00,
2013-02-08 07:41:00,29.0,29.0,-100.00,SSW,199,0.0,2.0,100,0.00,,,0.00,0.000000,,2013-02-08 16:41:00,
2013-02-08 07:51:00,29.0,29.0,-100.00,SSW,199,0.0,2.0,100,0.00,,,0.00,0.000000,,2013-02-08 16:51:00,
2013-02-08 08:12:00,28.0,28.0,-100.00,SSW,209,0.0,3.0,100,0.00,,,0.00,0.000000,,2013-02-08 17:12:00,
2013-02-08 08:22:00,28.0,28.0,-100.00,SSW,209,0.0,3.0,100,0.00,,,0.00,0.000000,,2013-02-08 17:22:00,
2013-02-08 08:32:00,28.0,28.0,-100.00,SSW,209,0.0,3.0,100,0.00,,,0.00,0.000000,,2013-02-08 17:32:00,
2013-02-08 08:42:00,28.0,28.0,-100.00,SSW,209,0.0,3.0,100,0.00,,,0.00,0.000000,,2013-02-08 17:42:00,
2013-02-08 08:52:00,28.0,28.0,-100.00,SSW,209,0.0,3.0,100,0.00,,,0.00,0.000000,,2013-02-08 17:52:00,
2013-02-08 09:12:00,28.0,28.0,-100.00,WSW,255,0.0,6.0,100,0.00,,,0.00,0.000000,,2013-02-08 18:12:00,
2013-02-08 09:23:00,28.0,28.0,-100.00,WSW,255,0.0,6.0,100,0.00,,,0.00,0.000000,,2013-02-08 18:23:00,
2013-02-08 09:33:00,28.0,28.0,-100.00,WSW,255,0.0,6.0,100,0.00,,,0.00,0.000000,,2013-02-08 18:33:00,
2013-02-08 09:42:00,28.0,28.0,-100.00,WSW,255,0.0,6.0,100,0.00,,,0.00,0.000000,,2013-02-08 18:42:00,
2013-02-08 09:52:00,28.0,28.0,-100.00,WSW,255,0.0,6.0,100,0.00,,,0.00,0.000000,,2013-02-08 18:52:00,
2013-02-08 10:22:00,28.0,28.0,-100.00,NNW,341,2.0,3.0,100,0.00,,,0.00,4.000000,,2013-02-08 19:22:00,
2013-02-08 10:32:00,28.0,28.0,-100.00,NNW,341,2.0,3.0,100,0.00,,,0.00,4.000000,,2013-02-08 19:32:00,
2013-02-08 10:42:00,28.0,28.0,-100.00,NNW,341,2.0,3.0,100,0.00,,,0.00,4.000000,,2013-02-08 19:42:00,
2013-02-08 10:52:00,28.0,28.0,-100.00,NNW,341,2.0,3.0,100,0.00,,,0.00,4.000000,,2013-02-08 19:52:00,
2013-02-08 11:11:00,29.0,29.0,-100.00,NNW,332,0.0,3.0,100,0.00,,,0.00,15.000000,,2013-02-08 20:11:00,
2013-02-08 11:21:00,29.0,29.0,-100.00,NNW,332,0.0,3.0,100,0.00,,,0.00,15.000000,,2013-02-08 20:21:00,
2013-02-08 11:31:00,29.0,29.0,-100.00,NNW,332,0.0,3.0,100,0.00,,,0.00,15.000000,,2013-02-08 20:31:00,
2013-02-08 11:41:00,29.0,29.0,-100.00,NNW,332,0.0,3.0,100,0.00,,,0.00,15.000000,,2013-02-08 20:41:00,
2013-02-08 11:52:00,29.0,29.0,-100.00,NNW,332,0.0,3.0,100,0.00,,,0.00,15.000000,,2013-02-08 20:52:00,
2013-02-08 12:11:00,32.0,32.0,-100.00,North,0,0.0,0.0,100,0.00,,,0.00,24.000000,,2013-02-08 21:11:00,
2013-02-08 12:21:00,32.0,32.0,-100.00,North,0,0.0,0.0,100,0.00,,,0.00,24.000000,,2013-02-08 21:21:00,
2013-02-08 12:32:00,32.0,32.0,-100.00,North,0,0.0,0.0,100,0.00,,,0.00,24.000000,,2013-02-08 21:32:00,
2013-02-08 12:41:00,32.0,32.0,-100.00,North,0,0.0,0.0,100,0.00,,,0.00,24.000000,,2013-02-08 21:41:00,
2013-02-08 12:52:00,32.0,32.0,-100.00,North,0,0.0,0.0,100,0.00,,,0.00,24.000000,,2013-02-08 21:52:00,
2013-02-08 13:11:00,33.0,31.0,-100.00,North,359,1.0,4.0,93,0.00,,,0.00,24.000000,,2013-02-08 22:11:00,
2013-02-08 13:21:00,33.0,31.0,-100.00,North,359,1.0,4.0,93,0.00,,,0.00,24.000000,,2013-02-08 22:21:00,
2013-02-08 13:31:00,33.0,31.0,-100.00,North,359,1.0,4.0,93,0.00,,,0.00,24.000000,,2013-02-08 22:31:00,
2013-02-08 13:41:00,33.0,31.0,-100.00,North,359,1.0,4.0,93,0.00,,,0.00,24.000000,,2013-02-08 22:41:00,
2013-02-08 13:51:00,33.0,31.0,-100.00,North,359,1.0,4.0,93,0.00,,,0.00,24.000000,,2013-02-08 22:51:00,
2013-02-08 14:11:00,36.0,33.0,-100.00,South,177,1.0,3.0,90,0.00,,,0.00,30.000000,,2013-02-08 23:11:00,
2013-02-08 14:21:00,36.0,33.0,-100.00,South,177,1.0,3.0,90,0.00,,,0.00,30.000000,,2013-02-08 23:21:00,
2013-02-08 14:31:00,36.0,33.0,-100.00,South,177,1.0,3.0,90,0.00,,,0.00,30.000000,,2013-02-08 23:31:00,
2013-02-08 14:41:00,36.0,33.0,-100.00,South,177,1.0,3.0,90,0.00,,,0.00,30.000000,,2013-02-08 23:41:00,
2013-02-08 14:52:00,36.0,33.0,-100.00,South,177,1.0,3.0,90,0.00,,,0.00,30.000000,,2013-02-08 23:52:00,
2013-02-08 15:11:00,35.0,31.0,-100.00,NNW,338,1.0,4.0,86,0.00,,,0.00,28.000000,,2013-02-09 00:11:00,
2013-02-08 15:21:00,35.0,31.0,-100.00,NNW,338,1.0,4.0,86,0.00,,,0.00,28.000000,,2013-02-09 00:21:00,
2013-02-08 15:32:00,35.0,31.0,-100.00,NNW,338,1.0,4.0,86,0.00,,,0.00,28.000000,,2013-02-09 00:32:00,
2013-02-08 15:42:00,35.0,31.0,-100.00,NNW,338,1.0,4.0,86,0.00,,,0.00,28.000000,,2013-02-09 00:42:00,
2013-02-08 15:51:00,35.0,31.0,-100.00,NNW,338,1.0,4.0,86,0.00,,,0.00,28.000000,,2013-02-09 00:51:00,
2013-02-08 16:11:00,34.0,29.0,-100.00,NNW,327,4.0,5.0,82,0.00,,,0.00,48.000000,,2013-02-09 01:11:00,
2013-02-08 16:21:00,34.0,29.0,-100.00,NNW,327,4.0,5.0,82,0.00,,,0.00,48.000000,,2013-02-09 01:21:00,
2013-02-08 16:31:00,34.0,29.0,-100.00,NNW,327,4.0,5.0,82,0.00,,,0.00,48.000000,,2013-02-09 01:31:00,
2013-02-08 16:41:00,34.0,29.0,-100.00,NNW,327,4.0,5.0,82,0.00,,,0.00,48.000000,,2013-02-09 01:41:00,
2013-02-08 16:52:00,34.0,29.0,-100.00,NNW,327,4.0,5.0,82,0.00,,,0.00,48.000000,,2013-02-09 01:52:00,
2013-02-08 17:21:00,34.0,27.0,-100.00,NNW,335,4.0,8.0,74,0.00,,,0.00,45.000000,,2013-02-09 02:21:00,
2013-02-08 17:32:00,34.0,27.0,-100.00,NNW,335,4.0,8.0,74,0.00,,,0.00,45.000000,,2013-02-09 02:32:00,
2013-02-08 17:41:00,34.0,27.0,-100.00,NNW,335,4.0,8.0,74,0.00,,,0.00,45.000000,,2013-02-09 02:41:00,
2013-02-08 17:52:00,34.0,27.0,-100.00,NNW,335,4.0,8.0,74,0.00,,,0.00,45.000000,,2013-02-09 02:52:00,
2013-02-08 18:11:00,33.0,27.0,-100.00,NW,325,5.0,8.0,79,0.00,,,0.00,10.000000,,2013-02-09 03:11:00,
2013-02-08 18:21:00,33.0,27.0,-100.00,NW,325,5.0,8.0,79,0.00,,,0.00,10.000000,,2013-02-09 03:21:00,
2013-02-08 18:32:00,33.0,27.0,-100.00,NW,325,5.0,8.0,79,0.00,,,0.00,10.000000,,2013-02-09 03:32:00,
2013-02-08 18:41:00,33.0,27.0,-100.00,NW,325,5.0,8.0,79,0.00,,,0.00,10.000000,,2013-02-09 03:41:00,
2013-02-08 18:51:00,33.0,27.0,-100.00,NW,325,5.0,8.0,79,0.00,,,0.00,10.000000,,2013-02-09 03:51:00,
2013-02-08 19:22:00,33.0,27.0,-100.00,NNW,333,5.0,9.0,77,0.00,,,0.00,0.000000,,2013-02-09 04:22:00,
2013-02-08 19:32:00,33.0,27.0,-100.00,NNW,333,5.0,9.0,77,0.00,,,0.00,0.000000,,2013-02-09 04:32:00,
2013-02-08 19:42:00,33.0,27.0,-100.00,NNW,333,5.0,9.0,77,0.00,,,0.00,0.000000,,2013-02-09 04:42:00,
2013-02-08 19:51:00,33.0,27.0,-100.00,NNW,333,5.0,9.0,77,0.00,,,0.00,0.000000,,2013-02-09 04:51:00,
2013-02-08 20:22:00,34.0,28.0,-100.00,NNW,331,4.0,8.0,78,0.00,,,0.00,0.000000,,2013-02-09 05:22:00,
2013-02-08 20:31:00,34.0,28.0,-100.00,NNW,331,4.0,8.0,78,0.00,,,0.00,0.000000,,2013-02-09 05:31:00,
2013-02-08 20:41:00,34.0,28.0,-100.00,NNW,331,4.0,8.0,78,0.00,,,0.00,0.000000,,2013-02-09 05:41:00,
2013-02-08 20:52:00,34.0,28.0,-100.00,NNW,331,4.0,8.0,78,0.00,,,0.00,0.000000,,2013-02-09 05:52:00,
2013-02-08 21:11:00,35.0,29.0,-100.00,NNW,341,5.0,10.0,77,0.00,,,0.00,0.000000,,2013-02-09 06:11:00,
2013-02-08 21:21:00,35.0,29.0,-100.00,NNW,341,5.0,10.0,77,0.00,,,0.00,0.000000,,2013-02-09 06:21:00,
2013-02-08 21:31:00,35.0,29.0,-100.00,NNW,341,5.0,10.0,77,0.00,,,0.00,0.000000,,2013-02-09 06:31:00,
2013-02-08 21:41:00,35.0,29.0,-100.00,NNW,341,5.0,10.0,77,0.00,,,0.00,0.000000,,2013-02-09 06:41:00,
2013-02-08 21:51:00,35.0,29.0,-100.00,NNW,341,5.0,10.0,77,0.00,,,0.00,0.000000,,2013-02-09 06:51:00,
2013-02-08 22:11:00,35.0,28.0,-100.00,North,6,7.0,11.0,76,0.00,,,0.00,0.000000,,2013-02-09 07:11:00,
2013-02-08 22:21:00,35.0,28.0,-100.00,North,6,7.0,11.0,76,0.00,,,0.00,0.000000,,2013-02-09 07:21:00,
2013-02-08 22:31:00,35.0,28.0,-100.00,North,6,7.0,11.0,76,0.00,,,0.00,0.000000,,2013-02-09 07:31:00,
2013-02-08 22:42:00,35.0,28.0,-100.00,North,6,7.0,11.0,76,0.00,,,0.00,0.000000,,2013-02-09 07:42:00,
2013-02-08 22:51:00,35.0,28.0,-100.00,North,6,7.0,11.0,76,0.00,,,0.00,0.000000,,2013-02-09 07:51:00,
2013-02-08 23:11:00,35.0,29.0,-100.00,NNE,13,4.0,9.0,77,0.00,,,0.00,0.000000,,2013-02-09 08:11:00,
2013-02-08 23:21:00,35.0,29.0,-100.00,NNE,13,4.0,9.0,77,0.00,,,0.00,0.000000,,2013-02-09 08:21:00,
2013-02-08 23:31:00,35.0,29.0,-100.00,NNE,13,4.0,9.0,77,0.00,,,0.00,0.000000,,2013-02-09 08:31:00,
2013-02-08 23:41:00,35.0,29.0,-100.00,NNE,13,4.0,9.0,77,0.00,,,0.00,0.000000,,2013-02-09 08:41:00,
2013-02-08 23:51:00,35.0,29.0,-100.00,NNE,13,4.0,9.0,77,0.00,,,0.00,0.000000,,2013-02-09 08:51:00,